DW1824 Weather Reports


Display with metric or nautical units.
time (UTC)temp
F
wind
direction
speed
MPH
gust
MPH
rain 1hr
in
rain 24hr
in
rain mn
in
humidity
%
barometer
mb
20240227223319 79 193 9.0 21.0 0.00 0.00 0.00 75 1006.2
20240227222349 79 164 9.0 18.0 0.00 0.00 0.00 76 1006.0
20240227221339 80 200 9.0 18.0 0.00 0.00 0.00 75 1006.0
20240227220340 80 176 10.0 23.0 0.00 0.00 0.00 74 1005.9
20240227215329 80 154 9.0 16.0 0.00 0.00 0.00 75 1005.7
20240227214344 80 249 10.0 18.0 0.00 0.00 0.00 73 1006.0
20240227213345 81 186 9.0 22.0 0.00 0.00 0.00 71 1005.8
20240227212315 81 185 9.0 19.0 0.00 0.00 0.00 72 1005.7
20240227211324 80 176 9.0 22.0 0.00 0.00 0.00 71 1005.6
20240227210345 82 157 15.0 21.0 0.00 0.00 0.00 67 1006.0
20240227205338 81 225 9.0 25.0 0.00 0.00 0.00 69 1006.1
20240227204326 82 207 11.0 24.0 0.00 0.00 0.00 65 1006.1
20240227203349 83 175 13.0 20.0 0.00 0.00 0.00 63 1005.9
20240227202318 83 185 14.0 23.0 0.00 0.00 0.00 63 1005.9
20240227201313 83 157 12.0 22.0 0.00 0.00 0.00 65 1006.2
20240227200335 83 182 13.0 25.0 0.00 0.00 0.00 63 1006.6
20240227195324 83 168 15.0 23.0 0.00 0.00 0.00 62 1006.6
20240227194314 83 169 13.0 22.0 0.00 0.00 0.00 66 1006.8
20240227193321 83 197 13.0 21.0 0.00 0.00 0.00 65 1007.1
20240227192331 83 164 12.0 21.0 0.00 0.00 0.00 66 1007.2
20240227191320 83 196 11.0 22.0 0.00 0.00 0.00 65 1007.5
20240227190324 83 193 13.0 26.0 0.00 0.00 0.00 67 1007.5
20240227185338 82 196 11.0 29.0 0.00 0.00 0.00 68 1007.7
20240227184329 82 219 12.0 24.0 0.00 0.00 0.00 70 1008.0
20240227183330 81 192 13.0 27.0 0.00 0.00 0.00 69 1008.0
20240227182321 81 185 11.0 22.0 0.00 0.00 0.00 72 1008.3
20240227181315 80 238 11.0 25.0 0.00 0.00 0.00 71 1008.6
20240227180318 80 226 13.0 28.0 0.00 0.00 0.00 72 1008.8
20240227175328 80 166 12.0 26.0 0.00 0.00 0.00 72 1008.9
20240227174318 80 162 16.0 25.0 0.00 0.00 0.00 72 1009.1
20240227173324 80 205 15.0 23.0 0.00 0.00 0.00 73 1009.1
20240227172314 79 187 10.0 23.0 0.00 0.00 0.00 74 1009.7
20240227171325 78 182 12.0 24.0 0.00 0.00 0.00 75 1009.6
20240227170327 77 201 13.0 25.0 0.00 0.00 0.00 77 1009.6
20240227165321 77 207 13.0 25.0 0.00 0.00 0.00 77 1009.6
20240227164331 77 192 13.0 20.0 0.00 0.00 0.00 79 1009.9
20240227163353 76 216 15.0 24.0 0.00 0.00 0.00 79 1009.9
20240227162323 76 168 16.0 28.0 0.00 0.00 0.00 80 1009.9
20240227161317 75 190 15.0 27.0 0.00 0.00 0.00 82 1010.0
20240227160319 74 201 15.0 25.0 0.00 0.00 0.00 83 1009.8
20240227155330 74 187 11.0 25.0 0.00 0.00 0.00 83 1009.6
20240227154323 74 201 14.0 22.0 0.00 0.00 0.00 83 1009.7
20240227153347 74 174 17.0 26.0 0.00 0.00 0.00 83 1009.9
20240227152316 74 186 13.0 25.0 0.00 0.00 0.00 84 1009.6
20240227151326 74 193 12.0 19.0 0.00 0.00 0.00 85 1009.5
20240227150328 73 185 13.0 24.0 0.00 0.00 0.00 85 1009.5
20240227145323 73 168 12.0 20.0 0.00 0.00 0.00 85 1009.8
20240227144314 73 187 11.0 20.0 0.00 0.00 0.00 85 1009.8
20240227143317 72 160 9.0 17.0 0.00 0.00 0.00 86 1009.9
20240227142313 72 189 10.0 22.0 0.00 0.00 0.00 86 1010.1
20240227141321 72 206 8.0 16.0 0.00 0.00 0.00 86 1010.0
20240227140323 72 179 10.0 20.0 0.00 0.00 0.00 87 1009.8
20240227135314 71 182 8.0 16.0 0.00 0.00 0.00 87 1009.8
20240227134329 71 195 6.0 16.0 0.00 0.00 0.00 87 1009.9
20240227133332 71 187 8.0 18.0 0.00 0.00 0.00 87 1009.7
20240227132320 71 170 8.0 19.0 0.00 0.00 0.00 87 1009.6
20240227131331 71 180 7.0 19.0 0.00 0.00 0.00 87 1009.6
20240227130317 71 187 8.0 16.0 0.00 0.00 0.00 87 1009.6
20240227125347 70 184 8.0 15.0 0.00 0.00 0.00 87 1009.4
20240227124315 70 208 8.0 16.0 0.00 0.00 0.00 87 1009.1
20240227123317 70 201 6.0 15.0 0.00 0.00 0.00 88 1009.3
20240227122332 71 187 8.0 16.0 0.00 0.00 0.00 87 1009.1
20240227121323 70 192 7.0 15.0 0.00 0.00 0.00 87 1009.0
20240227120325 70 185 8.0 13.0 0.00 0.00 0.00 88 1009.1
20240227115313 70 190 6.0 16.0 0.00 0.00 0.00 88 1009.1
20240227114326 70 176 7.0 17.0 0.00 0.00 0.00 87 1008.8
20240227113330 70 185 9.0 15.0 0.00 0.00 0.00 87 1008.6
20240227112320 70 172 7.0 14.0 0.00 0.00 0.00 87 1008.8
20240227111350 70 165 8.0 13.0 0.00 0.00 0.00 87 1009.0
20240227110335 70 183 7.0 17.0 0.00 0.00 0.00 87 1009.1
20240227105325 70 186 7.0 16.0 0.00 0.00 0.00 88 1009.1
20240227104314 70 181 9.0 13.0 0.00 0.00 0.00 88 1009.1
20240227103336 70 172 7.0 14.0 0.00 0.00 0.00 87 1009.1
20240227102326 70 161 7.0 15.0 0.00 0.00 0.00 88 1009.2
20240227101319 70 162 6.0 11.0 0.00 0.00 0.00 88 1009.4
20240227100343 70 169 7.0 11.0 0.00 0.00 0.00 88 1009.5
20240227095332 70 171 6.0 14.0 0.00 0.00 0.00 88 1009.4
20240227094342 70 162 7.0 13.0 0.00 0.00 0.00 88 1009.6
20240227093328 70 178 6.0 13.0 0.00 0.00 0.00 88 1009.6
20240227092338 70 193 9.0 13.0 0.00 0.00 0.00 87 1009.7
20240227091348 71 187 9.0 14.0 0.00 0.00 0.00 87 1009.8
20240227090327 71 179 7.0 12.0 0.00 0.00 0.00 87 1010.0
20240227085335 71 187 8.0 14.0 0.00 0.00 0.00 87 1010.3
20240227084329 71 191 9.0 19.0 0.00 0.00 0.00 87 1010.2
20240227083331 71 195 8.0 17.0 0.00 0.00 0.00 87 1010.5
20240227082322 71 176 9.0 19.0 0.00 0.00 0.00 88 1010.5
20240227081316 71 162 8.0 19.0 0.00 0.00 0.00 88 1010.3
20240227080319 71 196 9.0 20.0 0.00 0.00 0.00 87 1010.6
20240227075329 71 164 7.0 18.0 0.00 0.00 0.00 87 1010.5
20240227074321 71 171 9.0 16.0 0.00 0.00 0.00 87 1010.5
20240227073327 71 171 9.0 16.0 0.00 0.00 0.00 87 1010.6
20240227072318 71 195 8.0 18.0 0.00 0.00 0.00 87 1010.8
20240227071349 71 178 7.0 15.0 0.00 0.00 0.00 87 1010.9
20240227070330 71 178 9.0 18.0 0.00 0.00 0.00 87 1011.0
20240227065325 71 191 11.0 20.0 0.00 0.00 0.00 88 1011.0
20240227064325 71 184 9.0 16.0 0.00 0.00 0.00 88 1011.1
20240227063329 71 216 9.0 19.0 0.00 0.00 0.00 88 1011.2
20240227062316 71 201 8.0 14.0 0.00 0.00 0.00 88 1011.4
20240227061327 71 187 8.0 14.0 0.00 0.00 0.00 88 1011.6
20240227060314 71 167 9.0 18.0 0.00 0.00 0.00 88 1011.5
20240227055323 71 168 8.0 17.0 0.00 0.00 0.00 88 1011.6
20240227054331 71 197 10.0 19.0 0.00 0.00 0.00 88 1011.6
20240227053315 71 177 8.0 16.0 0.00 0.00 0.00 87 1011.5
20240227052350 71 189 9.0 14.0 0.00 0.00 0.00 88 1011.6
20240227051339 71 195 6.0 17.0 0.00 0.00 0.00 87 1011.5
20240227050318 71 153 8.0 18.0 0.00 0.00 0.00 87 1011.6
20240227045348 71 185 9.0 19.0 0.00 0.00 0.00 87 1011.8
20240227044323 71 174 9.0 13.0 0.00 0.00 0.00 87 1011.9
20240227043326 72 185 10.0 17.0 0.00 0.00 0.00 87 1012.0
20240227042315 72 187 11.0 17.0 0.00 0.00 0.00 87 1012.1
20240227041346 72 197 8.0 17.0 0.00 0.00 0.00 87 1012.2
20240227040328 71 167 8.0 21.0 0.00 0.00 0.00 87 1012.0
20240227035323 71 189 9.0 22.0 0.00 0.00 0.00 87 1011.9
20240227034332 71 195 9.0 17.0 0.00 0.00 0.00 87 1011.6
20240227033333 72 183 9.0 20.0 0.00 0.00 0.00 87 1011.6
20240227032322 72 185 10.0 19.0 0.00 0.00 0.00 87 1011.6
20240227031317 72 190 9.0 19.0 0.00 0.00 0.00 87 1011.5
20240227030336 72 178 11.0 20.0 0.00 0.00 0.00 87 1011.6
20240227025327 72 204 8.0 19.0 0.00 0.00 0.00 87 1011.5
20240227024318 72 183 14.0 29.0 0.00 0.00 0.00 86 1011.4
20240227023323 72 183 10.0 26.0 0.00 0.00 0.00 86 1011.4
20240227022332 72 191 10.0 17.0 0.00 0.00 0.00 86 1011.2
20240227021320 72 175 12.0 23.0 0.00 0.00 0.00 86 1011.2
20240227020323 72 164 11.0 25.0 0.00 0.00 0.00 85 1011.1
20240227015316 72 163 10.0 23.0 0.00 0.00 0.00 86 1011.2
20240227014325 72 166 10.0 18.0 0.00 0.00 0.00 85 1011.1
20240227013328 72 183 8.0 16.0 0.00 0.00 0.00 86 1011.3
20240227012318 72 224 9.0 14.0 0.00 0.00 0.00 86 1011.2
20240227011332 72 166 6.0 10.0 0.00 0.00 0.00 86 1011.0
20240227010332 72 153 6.0 10.0 0.00 0.00 0.00 86 1011.0
20240227005341 72 180 6.0 11.0 0.00 0.00 0.00 85 1011.0
20240227004330 72 163 7.0 12.0 0.00 0.00 0.00 85 1011.2
20240227003316 72 149 6.0 11.0 0.00 0.00 0.00 84 1011.3
20240227002326 73 157 8.0 13.0 0.00 0.00 0.00 83 1011.3
20240227001316 73 182 7.0 12.0 0.00 0.00 0.00 83 1011.2
20240227000319 73 162 5.0 11.0 0.00 0.00 0.00 82 1011.3
20240226235314 74 166 7.0 15.0 0.00 0.00 0.00 80 1011.3
20240226234325 74 169 8.0 14.0 0.00 0.00 0.00 80 1011.1
20240226233327 75 175 8.0 14.0 0.00 0.00 0.00 79 1011.1
20240226232317 76 160 8.0 14.0 0.00 0.00 0.00 78 1011.1
20240226231329 77 157 8.0 13.0 0.00 0.00 0.00 79 1011.1
20240226230331 77 165 8.0 19.0 0.00 0.00 0.00 78 1011.0
20240226225320 78 178 10.0 20.0 0.00 0.00 0.00 76 1011.1
20240226224332 78 174 9.0 16.0 0.00 0.00 0.00 74 1011.0